Volver al catálogo

THORAD AGENA D DEB

ActivoSSO
NORAD 42533·DEBRIS·🇺🇸 United States

Lanzado Apr 8, 1970 desde Vandenberg Space Force Base

Loading…

Próximos Pases (próximas 24 horas)

TLE

ActualizadoSource: Space-Track

Época: Sep 14, 2026, 14:18 UTC

1 42533U 70025SP  26257.59635843  .00001123  00000-0  90516-3 0  9997
2 42533  99.6541 178.0464 0136505  99.0554 262.6077 13.88417003646309

Sigue THORAD AGENA D DEB en tiempo real con AllMySat

Download on the App Store